Location: B?dargowo
(53.3916°N, 14.4413°E)
Time: 04:24:09
(UTC+00:00)

SL-08 R/B - Pass Details

Date: 05 February 2023
Orbit: 672 x 737 km, 98.5° (Epoch: 24 March)

Event Time Altitude Azimuth Distance (km) Brightness Sun altitude
Rises 16:33:04 0° 17° (NNE) 3,178 6.4 -6.4°
Reaches altitude 10° 16:35:23 10° 21° (NNE) 2,255 5.6 -6.8°
Maximum altitude 16:40:18 61° 102° (ESE) 844 3.5 -7.5°
Drops below altitude 10° 16:45:11 10° 183° (S) 2,240 6.2 -8.2°
Sets 16:47:29 0° 187° (S) 3,155 7.0 -8.5°
